Location: *
(50.8512°N, 5.6907°E)
Time: 18:10:44
(UTC+00:00)

Cosmos 1763 Rocket - Pass Details

Date: 09 April 2020
Orbit: 734 x 779 km, 74.0° (Epoch: 01 June)

Event Time Altitude Azimuth Distance (km) Brightness Sun altitude
Rises 19:40:47 0° 338° (NNW) 3,235 7.6 -12.1°
Reaches altitude 10° 19:43:17 10° 345° (NNW) 2,297 6.6 -12.5°
Maximum altitude 19:48:16 45° 58° (ENE) 1,028 4.0 -13.1°
Enters shadow 19:51:28 20° 121° (ESE) 1,670 4.6 -13.6°
